Location: Deneb Observatory
(47.2267°N, 100.4953°W)
Time: 20:49:34
(UTC-05:00)

Amateur Radio Satellites - All Passes

Search period start: 31 August 2016 20:19
Search period end: 01 September 2016 20:19
Location: Deneb Observatory, 47.2267°N, 100.4953°W

Satellite Date Start Highest point End Downlink Frequencies (MHz)
Time Altitude Azimuth
BEESAT 2 31 Aug 20:19:56 20:20:22 10° 252° (WSW) 20:20:49 435.950
CUBEBUG 2 31 Aug 20:24:50 20:28:31 24° 65° (ENE) 20:32:07 437.445
DOVE 4 31 Aug 20:28:54 20:33:45 37° 265° (W) 20:38:41 437.250
CINEMA 3 31 Aug 20:36:06 20:41:07 88° 253° (WSW) 20:46:02 145.822/145.860
HO-68 31 Aug 20:39:19 20:46:32 90° 270° (W) 20:53:47 435.675
GOMX 1 31 Aug 20:47:59 20:50:48 14° 275° (W) 20:53:40 467.674
PCSat 31 Aug 20:59:05 21:04:33 83° 238° (WSW) 21:09:58 145.827
STRAND 1 31 Aug 21:04:41 21:09:48 69° 103° (ESE) 21:14:54 437.568
NOAA 18 31 Aug 21:06:52 21:08:22 11° 274° (W) 21:09:53 137.9125
SEEDS 31 Aug 21:09:24 21:13:33 73° 257° (WSW) 21:17:44 437.485
Oscar 11 31 Aug 21:14:58 21:18:47 32° 67° (ENE) 21:22:36 145.826/435.025
AIST 1 31 Aug 21:16:03 21:20:23 57° 265° (W) 21:24:41
Cosmos 2504 31 Aug 21:18:42 21:22:59 17° 283° (WNW) 21:27:16 435.465 / 435.565
AAUSAT CUBESAT 2 31 Aug 21:27:12 21:31:19 83° 259° (W) 21:35:28 437.432
FUNcube-1 31 Aug 21:28:26 21:32:31 40° 70° (ENE) 21:36:33 145.935
AIST 2 31 Aug 21:29:26 21:33:21 39° 241° (WSW) 21:37:15 435.215
COMPASS 1 31 Aug 21:40:08 21:44:07 48° 261° (W) 21:48:09 437.405
CANX-2 31 Aug 21:41:36 21:44:53 22° 267° (W) 21:48:12 2200.000
CUTE 1.7 + AOD 2 31 Aug 21:46:45 21:50:03 22° 267° (W) 21:53:23 437.475
UWE-3 31 Aug 21:48:05 21:52:37 80° 258° (WSW) 21:57:03 435.000/436.395/437.385
ZACube-1 31 Aug 21:52:14 21:56:38 75° 75° (ENE) 22:00:57 437.345
Cosmos 2491 31 Aug 21:52:53 21:57:37 15° 310° (NW) 22:02:23 435.465 / 435.565
HUMSAT D 31 Aug 21:59:23 22:02:28 21° 64° (ENE) 22:05:32 437.325/437.525
PRISM 31 Aug 22:00:23 22:04:06 30° 96° (E) 22:07:48 437.425
CUBEBUG 2 31 Aug 22:00:32 22:04:55 42° 262° (W) 22:09:13 437.445
Cosmos 2499 31 Aug 22:14:52 22:19:34 18° 59° (ENE) 22:24:15 435.465 / 435.565
CINEMA 3 31 Aug 22:16:55 22:18:53 12° 274° (W) 22:20:52 145.822/145.860
GONETS M04 31 Aug 22:23:13 22:30:57 32° 64° (ENE) 22:38:37
DELFI C3 31 Aug 22:26:53 22:30:49 75° 75° (ENE) 22:34:47 145.870
HO-68 31 Aug 22:30:22 22:35:12 19° 272° (W) 22:40:04 435.675
O/OREOS (USA 219) 31 Aug 22:39:00 22:42:51 25° 52° (NE) 22:46:42 437.305
PCSat 31 Aug 22:44:30 22:47:05 14° 257° (WSW) 22:49:40 145.827
STRAND 1 31 Aug 22:44:55 22:48:28 19° 301° (WNW) 22:52:01 437.568
Oscar 11 31 Aug 22:51:13 22:54:55 28° 265° (W) 22:58:38 145.826/435.025
AUBIESAT-1 31 Aug 22:55:59 23:00:03 31° 61° (ENE) 23:04:02 437.475
VELOX 1 31 Aug 22:57:22 22:57:56 10° 55° (NE) 22:58:30 145.980
SO-50 31 Aug 22:59:25 23:03:16 24° 114° (ESE) 23:07:05 436.795
M-CUBED/EXP-1 PRIME 31 Aug 23:05:19 23:09:47 45° 64° (ENE) 23:14:12 437.505
FUNcube-1 31 Aug 23:05:29 23:08:55 22° 267° (W) 23:12:19 145.935
ANTELSAT 31 Aug 23:14:38 23:17:59 22° 93° (E) 23:21:18 437.575/2403.000
UKube-1 31 Aug 23:29:10 23:30:35 11° 56° (ENE) 23:32:01 .
ZACube-1 31 Aug 23:31:37 23:33:24 12° 272° (W) 23:35:11 437.345
50 SAT 31 Aug 23:33:18 23:35:36 16° 64° (ENE) 23:37:55 437.505
HUMSAT D 31 Aug 23:33:56 23:37:51 41° 262° (W) 23:41:45 437.325/437.525
PRISM 31 Aug 23:35:45 23:39:21 29° 294° (WNW) 23:42:57 437.425
AISAT 31 Aug 23:43:06 23:46:53 28° 65° (ENE) 23:50:42 437.250
TIGRISAT 31 Aug 23:43:44 23:47:47 40° 98° (E) 23:51:46 435.000
ESTCUBE 1 31 Aug 23:53:44 23:58:07 57° 72° (ENE) 00:02:33 437.505/2401.250
POPSAT HIP 1 01 Sep 00:02:35 00:02:51 10° 87° (E) 00:03:08 437.405
JAS-2 01 Sep 00:04:20 00:07:29 13° 84° (E) 00:10:43 435.910
DELFI C3 01 Sep 00:05:37 00:06:11 10° 273° (W) 00:06:46 145.870
Cosmos 2499 01 Sep 00:06:43 00:13:48 88° 81° (E) 00:21:01 435.465 / 435.565
UNISAT 6 01 Sep 00:13:50 00:18:09 89° 113° (ESE) 00:22:24 437.425
SPROUT 01 Sep 00:14:53 00:18:33 28° 66° (ENE) 00:22:14 437.525
O/OREOS (USA 219) 01 Sep 00:18:04 00:22:27 45° 252° (WSW) 00:26:50 437.305
CUBEBUG 1 01 Sep 00:18:45 00:23:08 68° 73° (ENE) 00:27:34 437.445
GONETS M04 01 Sep 00:19:44 00:28:31 69° 267° (W) 00:37:15
DUCHIFAT 1 01 Sep 00:22:35 00:25:06 15° 90° (E) 00:27:36 145.980
CUSAT 1 01 Sep 00:23:02 00:26:21 66° 285° (WNW) 00:30:43 437.405
RS-15 01 Sep 00:23:11 00:32:15 28° 101° (E) 00:41:37 29.354- 29.394
DANDE 01 Sep 00:23:50 00:26:13 27° 91° (E) 00:28:58 436.750
VELOX 1 01 Sep 00:29:08 00:33:34 72° 74° (ENE) 00:38:03 145.980
AUBIESAT-1 01 Sep 00:30:06 00:34:23 36° 257° (WSW) 00:38:37 437.475
DX 1 01 Sep 00:30:24 00:34:38 52° 71° (ENE) 00:38:56 434.975-435.025
QB50P2 01 Sep 00:31:34 00:34:57 23° 93° (E) 00:38:18 145.880/145.840
POLYITAN 1 01 Sep 00:34:03 00:37:26 23° 94° (E) 00:40:47 437.675
NANOSAT C BR1 01 Sep 00:38:07 00:41:31 24° 94° (E) 00:44:54 145.865
SO-50 01 Sep 00:38:39 00:43:26 57° 312° (NW) 00:48:10 436.795
M-CUBED/EXP-1 PRIME 01 Sep 00:40:30 00:44:24 25° 261° (W) 00:48:17 437.505
ANTELSAT 01 Sep 00:50:52 00:54:52 39° 291° (WNW) 00:58:49 437.575/2403.000
BUGSAT 1 01 Sep 00:58:03 01:00:34 16° 90° (E) 01:03:04 437.445
UKube-1 01 Sep 01:01:36 01:05:55 85° 78° (ENE) 01:10:18 .
50 SAT 01 Sep 01:05:30 01:08:53 40° 261° (W) 01:12:19 437.505
AISAT 01 Sep 01:19:09 01:23:15 35° 263° (W) 01:27:23 437.250
TIGRISAT 01 Sep 01:20:57 01:24:15 22° 296° (WNW) 01:27:33 435.000
QB50P1 01 Sep 01:24:30 01:28:45 77° 103° (ESE) 01:32:56 145.935-145.965
ESTCUBE 1 01 Sep 01:32:24 01:35:18 17° 270° (W) 01:38:15 437.505/2401.250
PHONESAT 2.4 01 Sep 01:33:53 01:35:43 15° 163° (SSE) 01:37:34 2401.200-2431.200
POPSAT HIP 1 01 Sep 01:35:01 01:39:15 85° 285° (WNW) 01:43:27 437.405
ITUPSAT 1 01 Sep 01:37:10 01:39:14 13° 55° (NE) 01:41:19 437.325
Oscar 19 01 Sep 01:40:37 01:41:03 10° 85° (E) 01:41:28 437.125/150
JAS-2 01 Sep 01:46:38 01:53:34 66° 102° (ESE) 02:01:10 435.910
SPROUT 01 Sep 01:50:31 01:54:24 32° 264° (W) 01:58:19 437.525
TISAT 1 01 Sep 01:51:26 01:55:38 63° 72° (ENE) 01:59:51 437.305
UNISAT 6 01 Sep 01:52:42 01:54:11 12° 303° (WNW) 01:55:40 437.425
DUCHIFAT 1 01 Sep 01:57:02 02:01:09 55° 288° (WNW) 02:05:13 145.980
CUBEBUG 1 01 Sep 01:57:34 01:59:54 14° 271° (W) 02:02:14 437.445
Cosmos 2499 01 Sep 02:01:34 02:05:54 17° 282° (WNW) 02:10:16 435.465 / 435.565
SWISSCUBE 01 Sep 02:05:27 02:09:15 24° 63° (ENE) 02:13:04 437.505
QB50P2 01 Sep 02:06:58 02:10:52 37° 291° (WNW) 02:14:44 145.880/145.840
DANDE 01 Sep 02:08:01 02:09:17 12° 300° (WNW) 02:10:38 436.750
DX 1 01 Sep 02:08:09 02:11:09 18° 269° (W) 02:14:10 434.975-435.025
VELOX 1 01 Sep 02:08:22 02:10:33 13° 271° (W) 02:12:44 145.980
POLYITAN 1 01 Sep 02:09:28 02:13:21 37° 291° (WNW) 02:17:12 437.675
NANOSAT C BR1 01 Sep 02:13:30 02:17:21 35° 292° (WNW) 02:21:10 145.865
GONETS M04 01 Sep 02:19:09 02:23:34 15° 289° (WNW) 02:28:00
BEESAT 01 Sep 02:21:36 02:25:43 30° 65° (ENE) 02:29:53 436.000
SO-50 01 Sep 02:21:53 02:24:55 16° 334° (NNW) 02:27:54 436.795
RS-15 01 Sep 02:31:23 02:43:04 89° 122° (ESE) 02:55:23 29.354- 29.394
BUGSAT 1 01 Sep 02:32:15 02:36:17 52° 288° (WNW) 02:40:14 437.445
UKube-1 01 Sep 02:41:36 02:42:35 11° 272° (W) 02:43:34 .
QB50P1 01 Sep 03:01:58 03:03:57 13° 301° (WNW) 03:05:55 145.935-145.965
PHONESAT 2.4 01 Sep 03:09:03 03:11:30 22° 180° (S) 03:13:56 2401.200-2431.200
ITUPSAT 1 01 Sep 03:11:33 03:16:19 83° 74° (ENE) 03:21:07 437.325
POPSAT HIP 1 01 Sep 03:13:20 03:14:20 11° 303° (WNW) 03:15:19 437.405
Oscar 19 01 Sep 03:16:02 03:21:17 74° 103° (ESE) 03:26:27 437.125/150
Gurwin Techsat 1B 01 Sep 03:26:08 03:31:14 44° 98° (E) 03:36:18 435.225
TISAT 1 01 Sep 03:29:26 03:31:42 14° 270° (W) 03:33:58 437.305
MOZHAYETS 4 01 Sep 03:29:44 03:33:14 22° 63° (ENE) 03:36:45
JAS-2 01 Sep 03:32:23 03:38:13 31° 299° (WNW) 03:44:33 435.910
SWISSCUBE 01 Sep 03:42:14 03:46:48 46° 261° (W) 03:51:23 437.505
AO-7 01 Sep 03:43:36 03:47:51 15° 85° (E) 03:52:05 29.400- 29.500
BEESAT 01 Sep 03:59:04 04:03:26 36° 263° (W) 04:07:49 436.000
Cosmos 2491 01 Sep 04:00:15 04:06:37 21° 56° (NE) 04:12:56 435.465 / 435.565
KKS-1 01 Sep 04:23:56 04:28:19 56° 71° (ENE) 04:32:44 437.445
AO-85 01 Sep 04:38:03 04:42:14 24° 114° (ESE) 04:46:14 145.980
ITAMSAT 1 01 Sep 04:40:56 04:46:06 63° 102° (ESE) 04:51:14 435.822/435.867
PHONESAT 2.4 01 Sep 04:45:25 04:47:16 15° 196° (SSW) 04:49:06 2401.200-2431.200
RS-15 01 Sep 04:46:03 04:57:12 43° 334° (NNW) 05:08:47 29.354- 29.394
STARS 01 Sep 04:46:20 04:50:37 48° 70° (ENE) 04:54:54 437.465
ITUPSAT 1 01 Sep 04:52:43 04:54:47 13° 272° (W) 04:56:52 437.325
Oscar 19 01 Sep 04:56:29 05:00:02 19° 302° (WNW) 05:03:34 437.125/150
CUBESAT XI-V 01 Sep 05:02:43 05:06:33 26° 65° (ENE) 05:10:24 437.345
MOZHAYETS 4 01 Sep 05:05:45 05:10:08 46° 261° (W) 05:14:33
Gurwin Techsat 1B 01 Sep 05:06:27 05:11:00 30° 297° (WNW) 05:15:32 435.225
YUBILEINY 01 Sep 05:18:51 05:24:37 20° 75° (ENE) 05:30:21 435.215
AO-7 01 Sep 05:33:52 05:42:12 69° 106° (ESE) 05:50:26 29.400- 29.500
HORYU 2 01 Sep 05:35:50 05:37:33 12° 88° (E) 05:39:15 437.375
SO-50 01 Sep 05:47:19 05:49:59 15° 24° (NNE) 05:52:36 436.795
Cosmos 2491 01 Sep 05:56:07 06:05:02 81° 81° (E) 06:13:53 435.465 / 435.565
KKS-1 01 Sep 06:02:16 06:05:14 17° 269° (W) 06:08:14 437.445
Cosmos 2504 01 Sep 06:16:32 06:20:26 14° 75° (ENE) 06:24:13 435.465 / 435.565
AO-85 01 Sep 06:17:14 06:22:25 61° 311° (NW) 06:27:17 145.980
BRITE-PL 01 Sep 06:17:58 06:22:09 21° 88° (E) 06:26:14 437.365/2234.400
ITAMSAT 1 01 Sep 06:21:18 06:25:08 21° 301° (WNW) 06:28:58 435.822/435.867
STARS 01 Sep 06:23:59 06:27:13 20° 268° (W) 06:30:28 437.465
CUBESAT XI-V 01 Sep 06:39:25 06:43:45 39° 263° (W) 06:48:08 437.345
STRAND 1 01 Sep 06:46:20 06:50:05 21° 60° (ENE) 06:53:50 437.568
RS-15 01 Sep 07:02:55 07:13:47 35° 8° (N) 07:24:47 29.354- 29.394
GOMX 1 01 Sep 07:06:20 07:10:39 24° 90° (E) 07:14:46 467.674
HORYU 2 01 Sep 07:10:14 07:14:40 78° 285° (WNW) 07:19:04 437.375
YUBILEINY 01 Sep 07:11:12 07:20:03 84° 96° (E) 07:28:55 435.215
SO-50 01 Sep 07:27:00 07:31:33 50° 46° (NE) 07:35:58 436.795
AO-7 01 Sep 07:27:16 07:34:26 34° 307° (NW) 07:41:35 29.400- 29.500
NOAA 18 01 Sep 07:40:19 07:45:20 36° 97° (E) 07:50:20 137.9125
NOAA 15 01 Sep 07:41:54 07:47:08 54° 100° (E) 07:52:20 137.62
Cubesat XI-IV 01 Sep 07:47:10 07:52:19 47° 99° (E) 07:57:25 437.490
Cosmos 2491 01 Sep 07:54:12 08:00:51 25° 282° (WNW) 08:07:30 435.465 / 435.565
BRITE-PL 01 Sep 07:55:26 08:01:07 68° 287° (WNW) 08:06:36 437.365/2234.400
CUTE-I 01 Sep 07:57:18 08:02:34 58° 101° (ESE) 08:07:48 437.470
AO-85 01 Sep 08:00:31 08:03:47 17° 331° (NNW) 08:06:56 145.980
LilacSat-2 01 Sep 08:03:41 08:07:28 78° 102° (ESE) 08:11:14 437.200
Cosmos 2504 01 Sep 08:04:17 08:12:30 71° 94° (E) 08:20:08 435.465 / 435.565
HO-68 01 Sep 08:05:51 08:09:24 14° 85° (E) 08:12:56 435.675
STRAND 1 01 Sep 08:23:47 08:28:50 62° 258° (WSW) 08:33:54 437.568
DOVE 4 01 Sep 08:24:38 08:29:34 55° 99° (E) 08:34:10 437.250
CINEMA 3 01 Sep 08:29:12 08:32:06 17° 89° (E) 08:34:55 145.822/145.860
BEESAT 3 01 Sep 08:42:58 08:45:14 15° 112° (ESE) 08:47:31 437.485
ISS 01 Sep 08:43:49 08:47:02 55° 149° (SSE) 08:50:16 145.825
GOMX 1 01 Sep 08:43:49 08:49:02 52° 290° (WNW) 08:53:58 467.674
HORYU 2 01 Sep 08:49:22 08:50:27 11° 305° (NW) 08:51:33 437.375
SEEDS 01 Sep 08:51:14 08:53:45 15° 90° (E) 08:56:16 437.485
PRISM 01 Sep 08:52:38 08:56:19 33° 67° (ENE) 09:00:03 437.425
AAUSAT CUBESAT 2 01 Sep 09:07:59 09:09:50 13° 88° (E) 09:11:41 437.432
SO-50 01 Sep 09:08:02 09:11:45 24° 246° (WSW) 09:15:22 436.795
CUSAT 1 01 Sep 09:08:45 09:13:57 23° 64° (ENE) 09:19:47 437.405
YUBILEINY 01 Sep 09:10:59 09:18:00 26° 300° (WNW) 09:25:05 435.215
RS-15 01 Sep 09:17:19 09:29:32 59° 40° (NE) 09:41:37 29.354- 29.394
COMPASS 1 01 Sep 09:20:09 09:23:23 21° 93° (E) 09:26:37 437.405
NOAA 18 01 Sep 09:21:01 09:26:00 37° 296° (WNW) 09:30:58 137.9125
CANX-2 01 Sep 09:22:12 09:26:21 50° 99° (E) 09:30:29 2200.000
NOAA 15 01 Sep 09:22:18 09:26:36 25° 299° (WNW) 09:30:53 137.62
AO-7 01 Sep 09:23:17 09:24:41 11° 331° (NNW) 09:26:07 29.400- 29.500
CUTE 1.7 + AOD 2 01 Sep 09:27:16 09:31:24 49° 99° (E) 09:35:32 437.475
Cubesat XI-IV 01 Sep 09:27:41 09:32:09 28° 298° (WNW) 09:36:37 437.490
UWE-3 01 Sep 09:35:52 09:38:22 15° 90° (E) 09:40:51 435.000/436.395/437.385
BRITE-PL 01 Sep 09:35:54 09:38:32 13° 307° (NW) 09:41:09 437.365/2234.400
CUTE-I 01 Sep 09:38:06 09:42:14 24° 300° (WNW) 09:46:22 437.470
ZACube-1 01 Sep 09:39:57 09:40:54 11° 87° (E) 09:41:51 437.345
LilacSat-2 01 Sep 09:40:19 09:41:12 11° 300° (WNW) 09:42:05 437.200
UNISAT 6 01 Sep 09:41:00 09:43:34 15° 60° (ENE) 09:46:06 437.425
AIST 1 01 Sep 09:47:59 09:52:20 71° 97° (E) 09:56:44
CUBEBUG 2 01 Sep 09:48:21 09:52:05 30° 95° (E) 09:55:45 437.445
HO-68 01 Sep 09:51:10 09:58:23 73° 105° (ESE) 10:05:31 435.675
Cosmos 2504 01 Sep 09:59:48 10:06:32 28° 295° (WNW) 10:12:55 435.465 / 435.565
DOVE 4 01 Sep 10:03:03 10:06:49 22° 299° (WNW) 10:10:26 437.250
CINEMA 3 01 Sep 10:05:16 10:09:39 53° 288° (WNW) 10:13:48 145.822/145.860
BEESAT 2 01 Sep 10:11:02 10:14:55 60° 123° (ESE) 10:18:52 435.950
ANTELSAT 01 Sep 10:16:05 10:20:01 30° 67° (ENE) 10:23:55 437.575/2403.000
BEESAT 3 01 Sep 10:18:33 10:22:27 63° 310° (NW) 10:26:23 437.485
ISS 01 Sep 10:20:25 10:23:35 44° 348° (NNW) 10:26:45 145.825
SEEDS 01 Sep 10:25:40 10:29:49 57° 287° (WNW) 10:33:57 437.485
PRISM 01 Sep 10:28:16 10:31:40 25° 265° (W) 10:35:07 437.425
Oscar 11 01 Sep 10:34:29 10:38:36 41° 98° (E) 10:42:41 145.826/435.025
AAUSAT CUBESAT 2 01 Sep 10:41:37 10:45:47 68° 286° (WNW) 10:49:55 437.432
TIGRISAT 01 Sep 10:44:55 10:49:20 54° 72° (ENE) 10:53:41 435.000
QB50P1 01 Sep 10:47:34 10:48:42 11° 57° (ENE) 10:49:49 145.935-145.965
FUNcube-1 01 Sep 10:49:06 10:53:11 54° 100° (E) 10:57:14 145.935
CUSAT 1 01 Sep 10:49:48 10:56:34 86° 259° (W) 11:04:29 437.405
DANDE 01 Sep 10:53:57 10:59:30 49° 75° (ENE) 11:06:33 436.750
COMPASS 1 01 Sep 10:55:10 10:59:06 39° 290° (WNW) 11:03:01 437.405
POPSAT HIP 1 01 Sep 10:57:03 10:59:07 13° 59° (ENE) 11:01:12 437.405
CANX-2 01 Sep 10:58:54 11:01:52 19° 297° (WNW) 11:04:51 2200.000
Cosmos 2499 01 Sep 10:59:20 11:02:15 12° 74° (ENE) 11:05:06 435.465 / 435.565
CUTE 1.7 + AOD 2 01 Sep 11:03:55 11:06:55 19° 297° (WNW) 11:09:55 437.475
UWE-3 01 Sep 11:11:07 11:15:12 53° 288° (WNW) 11:19:13 435.000/436.395/437.385
ZACube-1 01 Sep 11:13:36 11:17:46 77° 285° (WNW) 11:21:54 437.345
HUMSAT D 01 Sep 11:14:16 11:17:35 23° 94° (E) 11:20:54 437.325/437.525
UNISAT 6 01 Sep 11:15:13 11:19:46 73° 257° (WSW) 11:24:14 437.425
DUCHIFAT 1 01 Sep 11:17:22 11:20:19 19° 62° (ENE) 11:23:16 145.980
CUBEBUG 2 01 Sep 11:25:05 11:28:40 27° 294° (WNW) 11:32:12 437.445
AO-85 01 Sep 11:26:49 11:28:50 13° 21° (NNE) 11:30:47 145.980
QB50P2 01 Sep 11:27:01 11:30:36 27° 66° (ENE) 11:34:11 145.880/145.840
AIST 1 01 Sep 11:28:16 11:30:30 14° 296° (WNW) 11:32:44
GONETS M04 01 Sep 11:29:16 11:36:35 31° 81° (E) 11:43:57
POLYITAN 1 01 Sep 11:29:30 11:33:06 27° 66° (ENE) 11:36:41 437.675
RS-15 01 Sep 11:30:18 11:42:11 57° 246° (WSW) 11:53:52 29.354- 29.394
AIST 2 01 Sep 11:30:25 11:33:22 19° 113° (ESE) 11:36:20 435.215
NANOSAT C BR1 01 Sep 11:33:03 11:36:39 27° 66° (ENE) 11:40:15 145.865
DELFI C3 01 Sep 11:35:55 11:39:57 81° 103° (ESE) 11:43:59 145.870
HO-68 01 Sep 11:39:40 11:45:30 28° 305° (NW) 11:51:19 435.675
PCSat 01 Sep 11:43:39 11:48:49 48° 116° (ESE) 11:54:02 145.827
BEESAT 2 01 Sep 11:50:00 11:53:05 21° 323° (NW) 11:56:13 435.950
BUGSAT 1 01 Sep 11:50:36 11:53:33 19° 62° (ENE) 11:56:31 437.445
ANTELSAT 01 Sep 11:52:37 11:56:41 32° 264° (W) 12:00:43 437.575/2403.000
ISS 01 Sep 11:57:21 12:00:29 39° 8° (N) 12:03:36 145.825
BEESAT 3 01 Sep 11:58:54 12:00:54 13° 331° (NNW) 12:02:55 437.485
JAS-2 01 Sep 12:03:31 12:08:21 35° 63° (ENE) 12:13:38 435.910
CUBEBUG 1 01 Sep 12:07:30 12:07:49 10° 86° (E) 12:08:10 437.445
AUBIESAT-1 01 Sep 12:08:49 12:09:19 10° 92° (E) 12:09:47 437.475
Oscar 11 01 Sep 12:11:08 12:14:30 23° 296° (WNW) 12:17:52 145.826/435.025
M-CUBED/EXP-1 PRIME 01 Sep 12:17:26 12:20:01 17° 95° (E) 12:22:29 437.505
VELOX 1 01 Sep 12:18:37 12:19:47 11° 87° (E) 12:20:58 145.980
QB50P1 01 Sep 12:19:30 12:23:46 84° 76° (ENE) 12:28:04 145.935-145.965
TIGRISAT 01 Sep 12:23:13 12:26:19 18° 269° (W) 12:29:24 435.000
FUNcube-1 01 Sep 12:26:24 12:29:03 17° 298° (WNW) 12:31:42 145.935
POPSAT HIP 1 01 Sep 12:30:03 12:34:20 78° 258° (WSW) 12:38:37 437.405
50 SAT 01 Sep 12:31:49 12:33:26 12° 90° (E) 12:35:04 437.505
CUSAT 1 01 Sep 12:33:17 12:37:57 19° 276° (W) 12:43:03 437.405
DANDE 01 Sep 12:36:58 12:42:11 33° 267° (W) 12:48:35 436.750
Cosmos 2499 01 Sep 12:46:09 12:53:59 67° 94° (E) 13:01:17 435.465 / 435.565
UKube-1 01 Sep 12:47:52 12:49:12 11° 88° (E) 12:50:31 .
HUMSAT D 01 Sep 12:49:34 12:53:18 34° 291° (WNW) 12:57:01 437.325/437.525
DUCHIFAT 1 01 Sep 12:51:31 12:55:40 51° 260° (W) 12:59:50 145.980
O/OREOS (USA 219) 01 Sep 12:56:23 12:58:43 14° 98° (E) 13:01:04 437.305
Oscar 19 01 Sep 12:58:17 13:02:16 23° 60° (ENE) 13:06:17 437.125/150
AO-7 01 Sep 13:01:18 13:02:04 10° 28° (NNE) 13:02:49 29.400- 29.500
QB50P2 01 Sep 13:02:25 13:06:18 33° 263° (W) 13:10:12 145.880/145.840
POLYITAN 1 01 Sep 13:04:56 13:08:47 33° 263° (W) 13:12:41 437.675
AISAT 01 Sep 13:05:51 13:09:57 34° 97° (E) 13:13:59 437.250
AO-85 01 Sep 13:06:17 13:10:31 43° 45° (NE) 13:14:24 145.980
AIST 2 01 Sep 13:07:27 13:11:29 53° 312° (NW) 13:15:35 435.215
NANOSAT C BR1 01 Sep 13:08:28 13:12:18 32° 264° (W) 13:16:08 145.865
DELFI C3 01 Sep 13:12:50 13:14:12 12° 301° (WNW) 13:15:34 145.870
Gurwin Techsat 1B 01 Sep 13:13:10 13:16:22 16° 56° (NE) 13:19:35 435.225
ESTCUBE 1 01 Sep 13:19:32 13:24:07 82° 104° (ESE) 13:28:40 437.505/2401.250
GONETS M04 01 Sep 13:24:01 13:32:44 67° 283° (WNW) 13:41:35
BUGSAT 1 01 Sep 13:24:26 13:28:35 51° 260° (W) 13:32:44 437.445
PCSat 01 Sep 13:27:27 13:32:24 34° 316° (NW) 13:37:22 145.827
SPROUT 01 Sep 13:32:57 13:36:51 33° 96° (E) 13:40:41 437.525
ISS 01 Sep 13:33:51 13:37:09 78° 208° (SSW) 13:40:26 145.825
CUBEBUG 1 01 Sep 13:40:19 13:44:47 89° 102° (ESE) 13:49:12 437.445
AUBIESAT-1 01 Sep 13:40:25 13:44:24 73° 291° (WNW) 13:48:04 437.475
RS-15 01 Sep 13:46:59 13:51:38 13° 269° (W) 13:56:18 29.354- 29.394
JAS-2 01 Sep 13:48:35 13:53:28 36° 265° (W) 13:58:47 435.910
M-CUBED/EXP-1 PRIME 01 Sep 13:50:58 13:54:53 46° 296° (WNW) 13:58:29 437.505
DX 1 01 Sep 13:51:21 13:55:44 63° 102° (ESE) 14:00:03 434.975-435.025
VELOX 1 01 Sep 13:52:23 13:56:53 87° 288° (WNW) 14:01:20 145.980
QB50P1 01 Sep 13:59:17 14:00:09 10° 273° (W) 14:01:00 145.935-145.965
50 SAT 01 Sep 14:03:46 14:07:20 53° 288° (WNW) 14:10:55 437.505
UKube-1 01 Sep 14:21:27 14:25:49 82° 286° (WNW) 14:30:09 .
ITAMSAT 1 01 Sep 14:24:29 14:28:16 21° 59° (ENE) 14:32:05 435.822/435.867
O/OREOS (USA 219) 01 Sep 14:33:01 14:37:31 71° 297° (WNW) 14:42:05 437.305
Oscar 19 01 Sep 14:36:06 14:41:11 58° 259° (WSW) 14:46:21 437.125/150
Cosmos 2499 01 Sep 14:41:09 14:47:40 28° 295° (WNW) 14:53:51 435.465 / 435.565
AISAT 01 Sep 14:42:29 14:46:19 28° 295° (WNW) 14:50:06 437.250
AO-7 01 Sep 14:45:08 14:52:15 33° 52° (NE) 14:59:21 29.400- 29.500
AO-85 01 Sep 14:47:15 14:50:41 24° 246° (WSW) 14:53:56 145.980
AIST 2 01 Sep 14:48:55 14:50:54 13° 333° (NNW) 14:52:54 435.215
Gurwin Techsat 1B 01 Sep 14:50:17 14:55:37 88° 254° (WSW) 15:00:59 435.225
ESTCUBE 1 01 Sep 14:57:58 15:00:18 14° 302° (WNW) 15:02:39 437.505/2401.250
TISAT 1 01 Sep 15:07:41 15:11:54 74° 102° (ESE) 15:16:05 437.305
SPROUT 01 Sep 15:09:04 15:12:41 27° 294° (WNW) 15:16:16 437.525
ITUPSAT 1 01 Sep 15:09:57 15:13:02 17° 90° (E) 15:16:07 437.325
ISS 01 Sep 15:11:19 15:13:09 14° 225° (SW) 15:14:59 145.825
PCSat 01 Sep 15:15:26 15:17:31 12° 340° (NNW) 15:19:35 145.827
CUBEBUG 1 01 Sep 15:18:31 15:20:23 13° 303° (WNW) 15:22:15 437.445
YUBILEINY 01 Sep 15:23:31 15:26:41 12° 46° (NE) 15:29:52 435.215
GONETS M04 01 Sep 15:26:15 15:31:36 17° 308° (NW) 15:36:59
DX 1 01 Sep 15:28:40 15:31:27 17° 300° (WNW) 15:34:12 434.975-435.025
VELOX 1 01 Sep 15:30:54 15:32:39 12° 303° (WNW) 15:34:23 145.980
SWISSCUBE 01 Sep 15:39:04 15:43:27 35° 97° (E) 15:47:48 437.505
BEESAT 01 Sep 15:55:27 16:00:02 45° 99° (E) 16:04:35 436.000
UKube-1 01 Sep 15:59:56 16:01:08 11° 304° (NW) 16:02:19 .
ITAMSAT 1 01 Sep 16:02:09 16:07:17 64° 258° (WSW) 16:12:27 435.822/435.867
O/OREOS (USA 219) 01 Sep 16:15:53 16:17:49 12° 318° (NW) 16:19:46 437.305
Gurwin Techsat 1B 01 Sep 16:33:55 16:36:20 13° 273° (W) 16:38:46 435.225
AO-7 01 Sep 16:36:05 16:44:26 73° 253° (WSW) 16:52:48 29.400- 29.500
HORYU 2 01 Sep 16:36:14 16:39:16 18° 61° (ENE) 16:42:19 437.375
TISAT 1 01 Sep 16:44:55 16:47:00 14° 301° (WNW) 16:49:05 437.305
ITUPSAT 1 01 Sep 16:46:34 16:51:19 64° 288° (WNW) 16:56:03 437.325
BEESAT 2 01 Sep 16:49:02 16:51:51 18° 34° (NE) 16:54:39 435.950
BEESAT 3 01 Sep 16:55:34 16:59:04 29° 42° (NE) 17:02:34 437.485
MOZHAYETS 4 01 Sep 16:57:28 17:01:36 32° 96° (E) 17:05:42
Cosmos 2491 01 Sep 17:08:16 17:13:53 19° 75° (ENE) 17:19:30 435.465 / 435.565
SWISSCUBE 01 Sep 17:17:00 17:21:11 31° 295° (WNW) 17:25:21 437.505
YUBILEINY 01 Sep 17:17:42 17:26:12 50° 72° (ENE) 17:34:35 435.215
NOAA 15 01 Sep 17:27:32 17:31:12 19° 58° (ENE) 17:34:52 137.62
BRITE-PL 01 Sep 17:31:19 17:35:44 29° 63° (ENE) 17:40:26 437.365/2234.400
NOAA 18 01 Sep 17:31:49 17:35:14 17° 55° (NE) 17:38:40 137.9125
BEESAT 01 Sep 17:33:43 17:37:35 25° 297° (WNW) 17:41:27 436.000
Cubesat XI-IV 01 Sep 17:34:43 17:38:12 18° 57° (ENE) 17:41:41 437.490
CUTE-I 01 Sep 17:44:13 17:48:08 21° 59° (ENE) 17:52:03 437.470
KKS-1 01 Sep 17:48:02 17:52:32 73° 103° (ESE) 17:56:58 437.445
Cosmos 2504 01 Sep 17:53:29 17:59:38 29° 65° (ENE) 18:05:41 435.465 / 435.565
DOVE 4 01 Sep 17:57:50 18:00:23 14° 56° (NE) 18:02:57 437.250
STARS 01 Sep 18:08:38 18:13:01 60° 102° (ESE) 18:17:19 437.465
AIST 2 01 Sep 18:10:50 18:11:52 11° 22° (NNE) 18:12:54 435.215
HORYU 2 01 Sep 18:11:03 18:15:26 57° 259° (WSW) 18:19:50 437.375
GOMX 1 01 Sep 18:16:32 18:21:20 36° 66° (ENE) 18:26:18 467.674
BEESAT 2 01 Sep 18:26:10 18:30:11 82° 236° (SW) 18:34:11 435.950
CUBESAT XI-V 01 Sep 18:32:23 18:36:51 40° 97° (E) 18:41:18 437.345
BEESAT 3 01 Sep 18:33:08 18:36:49 37° 241° (WSW) 18:40:29 437.485
AO-7 01 Sep 18:33:57 18:38:40 16° 274° (W) 18:43:23 29.400- 29.500
MOZHAYETS 4 01 Sep 18:34:41 18:38:44 31° 293° (WNW) 18:42:46
HO-68 01 Sep 18:38:27 18:43:04 19° 48° (NE) 18:47:41 435.675
PCSat 01 Sep 18:45:28 18:49:23 19° 33° (NNE) 18:53:16 145.827
LilacSat-2 01 Sep 18:48:18 18:52:03 58° 74° (ENE) 18:55:49 437.200
Cosmos 2491 01 Sep 19:00:36 19:09:19 83° 96° (E) 19:18:09 435.465 / 435.565
NOAA 15 01 Sep 19:05:10 19:10:25 73° 257° (WSW) 19:15:44 137.62
BRITE-PL 01 Sep 19:09:06 19:13:59 45° 264° (W) 19:19:14 437.365/2234.400
NOAA 18 01 Sep 19:09:38 19:15:10 90° 74° (ENE) 19:20:44 137.9125
Cubesat XI-IV 01 Sep 19:12:18 19:17:39 80° 256° (WSW) 19:23:01 437.490
YUBILEINY 01 Sep 19:14:51 19:22:52 42° 274° (W) 19:30:50 435.215
CUTE-I 01 Sep 19:22:25 19:27:42 66° 258° (WSW) 19:33:02 437.470
KKS-1 01 Sep 19:26:00 19:28:32 15° 302° (WNW) 19:31:03 437.445
DOVE 4 01 Sep 19:31:56 19:37:12 76° 74° (ENE) 19:42:31 437.250
CINEMA 3 01 Sep 19:32:52 19:36:58 26° 65° (ENE) 19:40:59 145.822/145.860
STARS 01 Sep 19:46:03 19:48:55 17° 300° (WNW) 19:51:46 437.465
SEEDS 01 Sep 19:46:12 19:48:51 17° 62° (ENE) 19:51:30 437.485
Cosmos 2504 01 Sep 19:46:27 19:53:31 60° 267° (W) 20:00:33 435.465 / 435.565
AIST 2 01 Sep 19:47:35 19:51:31 37° 44° (NE) 19:55:26 435.215
AIST 1 01 Sep 19:52:09 19:55:49 25° 70° (ENE) 19:59:26
GOMX 1 01 Sep 19:54:28 19:59:20 38° 265° (W) 20:04:26 467.674
AAUSAT CUBESAT 2 01 Sep 20:01:32 20:03:36 14° 60° (ENE) 20:05:40 437.432
CUBESAT XI-V 01 Sep 20:10:08 20:14:03 27° 295° (WNW) 20:17:58 437.345
